sat.trackr.live / text

‹ back to catalog

STARLINK-34991

NORAD 65446 · 2025-194N

PAYLOAD ACTIVE UNKNOWN

§ Identity

Operator
Country
US
Launch date
2025-09-03
Launch site
AFWTR
Launch vehicle
Mass (kg)
RCS (m²)

Purposes: comms

External: N2YO · Heavens-Above · Gunter

§ Orbital elements

Epoch: 2026-09-20T13:50:41.900640Z

Period
93.91 min
Inclination
97.2807°
Eccentricity
0.0002807
Mean motion
15.33460038 rev/d
Perigee alt
463.6 km
Apogee alt
467.4 km
Semi-major
6,843.6 km
B*
3.7667e-4
RAAN
113.1338°
Arg perigee
87.0119°
Mean anomaly
273.1445°
Rev number
5,907

§ Raw data

STARLINK-349911 65446U 25194N   26263.57687385  .00012112  00000+0  37667-3 0  99922 65446  97.2807 113.1338 0002807  87.0119 273.1445 15.33460038 59073

JSON: /api/v1/satellites/65446 · /tle

For live sub-satellite position, see the globe view (requires WebGL).

§ Visibility from observer

Set your observer location to see the next 7 days of passes ≥ 10°. The values pass through the URL so the page stays shareable.

No JS? Fill the form by hand. The geolocation button needs JavaScript.